STARLINK-33549, 62289

Orbit data source: Space-Track

STARLINK-33549, 62289 is a payload satellite owned by SpaceX/Seattle (US) in LEO that was launched on Sun, 08 Dec 2024 UTC via an FALCON 9 launch vehicle from the Air Force Eastern Test Range (AFETR). Payload-class satellites include a variety of spacecraft equipped with specific instruments for various scientific and technological missions. These include communications satellites like Starlink; space stations such as the ISS; scientific satellites like the Hubble; Earth observation satellites from companies like Planet Labs, Umbra, and HawkEye 360; GPS; miniature CubeSats for education and research; and military/defense satellites.

Loading next visibility...
Identifier
62289, 2024-237Y
Orbit
LEO
Country
Flag of USUS
Related business
Manufacturer
SpaceX/Seattle
Mission
Operational Commercial Communications
Bus & Motor
STARLINK V2MO, Unknown motor
Mass
530 kg wet, ~500 kg dry
Launch date (UTC)
2024-12-08 (10 months ago)
Launch vehicle
FALCON 9
Launch site
Air Force Eastern Test Range (AFETR)
Object type
Payload
Rocket body
Debris
Shape & HBR
Box + 2 Pan, 17.7 m
Radar Cross Section
36.964 m², Large (>1 m²)

Expand to show TLE details & history
Last TLE update: 11 hours ago

TLE from 11 hours ago
0 STARLINK-33549
1 62289U 24237Y   25286.52988337  .00031325  00000-0  11417-2 0  9993
2 62289  43.0046 327.6275 0001529 263.7391  96.3286 15.27618787 48688
Epoch: 2025-10-13T12:43Z
TLE epoch observation values (Epoch: 2025-10-13T12:43:01.923Z)
Latitude
-0.00004°
Longitude
114.53809°
Altitude
482.825 km
Speed
7.626 km/s
True Right ascension
21h 50m 30s
True Declination
0° 00' 00"
Sunlit
Object was in full shadow at epoch
Visualization orbit readout
Latitude
Unknown
Longitude
Unknown
Altitude
Unknown
Speed
Unknown
Apparent Right ascension
Unknown
Apparent Declination
Unknown
Sunlit
N/A
Visualization observer readout
Local Sidereal Time
18:38:24
Azimuth
Unknown
Elevation
Unknown
Doppler factor
Unknown
Orbital elements
Apogee altitude
485.927 km
Perigee altitude
483.828 km
Semi-major axis
6,863.014 km
Eccentricity
0.00015
Inclination
43.0046°
RAAN
327.6275°
Arg. of periapsis
263.7391°
True anomaly
96.34601°
Mean anomaly
96.3286°
Eccentric anomaly
96.33731°
Mean motion
3.81743 °/min
Orbital period
94.3 mins
BSTAR
0.0011417
Loading maneuver chart data...
Computing Atmospheric mass density...
Loading historical data...
Loading historical data...
Loading historical data...
Loading historical data...
Loading historical data...
Loading historical data...
Loading historical data...

Documentation

Showing up to 5 results
|